ORBCOMM FM105 [-] (41181 NORAD) Tracking and Keplerian Element Data

This shows tracking and keplerian element data for the satellite.

Feedback or suggestion? Click here.




ElementValue
Catalog41181
NameORBCOMM FM105 [-]
Epoch Orbit15384
Epoch Day323.75875858
Epoch Year2018
RAAN123.7961
Inclination47.0008
Eccentricity0.0001687
Argument of Perigee4.0231
Mean Anonmoly356.0662
Mean Motion14.43319213
Decay Rate-8.2E-07
L11 41181U 15081C 18323.75875858 -.00000082 00000-0 21940-4 0 9991
L22 41181 47.0008 123.7961 0001687 4.0231 356.0662 14.43319213153847

Live tracking and technical data element details for ORBCOMM FM105 [-] (NORAD 41181). ORBCOMM FM105 [-] can be tracked NOW for your location showing map with azimuth and elevation plus other details from your city location.

Track the satellite on the map from your city or location and see movement details for azimuth, elevation, latitude, longitude, range, height, and movement on the map or in text.







IsCatalogInMostPopularTable: catalog: 41181, numindb: 120
Update: records affected: 1



GetName: 41181 ORBCOMM FM105 [-]

Hit Count: updated at: Wed, 21 Nov 2018 06:28:20 GMT